Simultaneous Nadir Overpasses (SNOs) Predictions

Prediction of SNOs between AQUA and NPP Satellite Orbit:

Table of predicted SNOs for the next 14.0 days since TLE Epoch: 9/17/2022
Index Date (AQUA) Time (AQUA) Lat,Lon (AQUA) SZA (AQUA ) Date (NPP) Time (NPP) Lat,Lon (NPP) SZA (NPP ) Distance(km) Time Diff (sec)
1 09/18/2022 15:15:26 -78.40, 20.93 87.96 09/18/2022 15:14:33 -78.39, 20.84 87.89 2.27 53
2 09/18/2022 16:04:40 78.86,-168.91 91.46 09/18/2022 16:05:05 78.86,-168.99 91.45 1.81 25
3 09/21/2022 06:41:42 78.44, -30.40 92.95 09/21/2022 06:40:41 78.44, -30.41 93.00 0.11 61
4 09/21/2022 07:30:59 -78.85, 139.47 87.58 09/21/2022 07:31:16 -78.85, 139.40 87.57 1.75 17
5 09/23/2022 22:07:59 -78.54, -81.46 86.22 09/23/2022 22:06:50 -78.55, -81.33 86.19 2.81 69
6 09/23/2022 22:57:18 78.79, 87.56 93.48 09/23/2022 22:57:28 78.78, 87.43 93.50 3.13 10
7 09/26/2022 13:35:28 75.18,-145.65 98.64 09/26/2022 13:34:14 75.35,-146.40 98.80 28.23 74
8 09/26/2022 14:23:33 -78.94, 36.88 85.77 09/26/2022 14:23:35 -78.95, 37.00 85.79 2.65 2
9 09/29/2022 05:49:52 78.84, -15.29 95.34 09/29/2022 05:49:48 78.84, -15.28 95.35 0.15 4



Historial Predications of SNOs between AQUA and NPP
